SCP
0 0 0 0 0 0 0 0 0 0 -0 0 0 0 0 0 0 0 0 0 0 0 0 0 0 -0 -0 0 0 0 0 0 0 -0 -0 0 -0 0 -0 0 0 0 0 -0
0 0 0 0 0 0 0 0 0 0 0 0 0 0 0 0 0 0 0 0 0 0 0 0 0 -0 -0 0 0 0 0 0 0 -0 -0 0 0 0 0 0 -0 -0 -0 -0
0 0 0 0 0 0 0 0 0 0 0 0 0 0 0 0 0 0 0 0 0 0 0 0 0 0 0 0 0 0 0 0 0 0 0 0 -0 -0 -0 -0 -0 -0 -0 -0
0 0 0 0 0 0 0 0 0 0 0 0 0 0 0 0 0 0 0 0 0 0 0 -0 0 -0 -0 0 -0 0 0 0 0 0 -0 0 -0 -0 -0 -0 -0 -0 -0 -0
0 0 0 0 0 0 0 0 0 0 0 0 0 0 0 0 0 0 0 0 0 0 0 0 -0 0 -0 0 0 0 0 0 -0 -0 -0 -0 -0 -0 -0 -0 -0 -0 -0 -0
0 0 0 0 0 0 0 0 0 0 0 0 0 0 0 0 0 0 0 0 -0 -0 -0 -0 0 0 -0 -0 0 -0 0 0 0 -0 -0 -0 -0 -0 -0 -0 0 0 -0 -0
0 0 0 0 0 0 0 0 0 0 0 0 0 0 0 0 0 0 0 0 0 -0 0 -0 -0 -0 -0 -0 0 0 0 0 0 0 0 0 -0 0 -0 -0 0 0 0 0
0 0 0 0 0 0 0 0 0 0 0 0 0 0 0 0 0 0 0 0 0 -0 0 -0 0 -0 0 0 0 0 0 0 0 0 0 0 0 0 -0 -0 0 0 0 0
0 0 0 0 0 0 0 0 0 0 0 0 0 0 0 0 0 0 0 0 0 -0 0 -0 -0 -0 -0 -0 0 0 0 0 0 0 0 0 0 0 0 0 -0 0 0 0
0 0 0 0 0 0 0 0 0 0 0 0 0 0 0 0 0 0 0 0 0 0 0 0 0 0 0 -0 -0 0 0 0 0 0 0 0 0 -0 0 0 0 -0 0 0
0 0 0 0 0 0 0 0 0 0 0 0 0 0 0 0 0 0 0 0 0 0 0 0 0 0 -0 -0 -0 -0 0 0 0 0 0 0 -0 0 0 0 0 0 -0 0
0 0 0 0 0 0 0 0 0 0 0 0 0 -0 -0 -0 0 0 0 0 0 0 0 0 0 0 -0 -0 -0 0 0 0 0 0 0 0 0 0 0 0 0 -0 0 0
0 0 0 0 0 0 0 0 0 0 0 0 0 0 0 0 0 0 0 0 0 0 0 0 0 0 -0 -0 -0 -0 0 0 0 0 0 0 0 -0 0 0 0 -0 0 0
0 0 0 0 0 0 0 0 0 0 0 0 0 0 -0 0 0 0 0 0 0 0 0 0 0 0 -0 0 0 -0 -0 0 0 0 0 0 0 0 -0 -0 0 0 -0 0
0 0 0 0 0 0 0 0 0 0 0 0 0 0 0 0 0 0 0 0 0 0 0 0 0 0 0 0 0 -0 0 0 0 0 0 0 0 -0 0 0 -0 -0 0 0
0 0 0 0 0 0 0 0 0 0 0 0 0 0 0 0 0 0 0 0 0 0 0 0 0 0 0 0 0 -0 -0 0 0 0 0 0 0 0 -0 -0 -0 0 0 0
0 0 0 0 0 0 0 0 0 0 0 0 0 0 0 0 0 0 0 0 0 0 0 0 0 0 0 0 0 -0 -0 0 0 0 0 -0 0 -0 -0 -0 -0 0 0 0
0 0 0 0 0 0 0 0 0 0 0 0 0 0 0 0 0 0 0 0 0 0 0 0 0 0 0 -0 0 -0 0 0 0 0 0 -0 -0 -0 -0 -0 0 0 0 0
0 0 0 0 0 0 0 0 0 0 0 0 0 0 0 0 0 0 0 0 0 0 0 0 0 0 0 0 0 0 0 0 0 0 0 0 -0 0 0 -0 0 0 0 0
0 0 0 0 0 0 0 0 0 0 0 0 0 0 -0 -0 -0 0 0 0 0 0 0 0 0 0 0 0 -0 0 0 0 0 -0 0 -0 -0 -0 0 0 0 0 0 0
0 0 0 0 0 0 0 0 0 0 0 0 0 0 -0 -0 -0 -0 -0 -0 0 0 0 0 0 0 0 0 0 0 0 0 0 0 0 0 0 0 0 0 0 0 0 0
0 0 0 0 0 0 0 0 0 0 0 0 0 0 0 0 0 0 -0 0 -0 0 -0 0 0 0 -0 -0 0 0 0 0 -0 -0 0 0 0 0 0 0 0 0 0 0
0 0 0 0 0 0 0 0 0 -0 -0 -0 -0 0 0 0 0 -0 -0 0 0 -0 0 0 0 -0 -0 0 0 0 0 0 -0 -0 0 0 -0 0 0 0 0 0 0 0
0 0 0 0 0 0 0 0 -0 -0 -0 -0 -0 0 0 0 0 0 0 -0 -0 0 -0 0 -0 -0 0 0 -0 0 -0 0 -0 -0 -0 0 0 -0 0 0 0 0 0 0
0 0 0 0 0 0 -0 -0 0 0 0 0 0 0 0 0 0 -0 0 -0 0 0 0 -0 0 0 0 -0 -0 0 -0 -0 -0 -0 -0 0 -0 -0 -0 -0 0 0 0 0
0 0 0 0 0 0 0 0 0 0 -0 0 0 0 0 -0 -0 -0 0 0 0 0 0 -0 0 -0 0 0 -0 0 0 -0 -0 0 0 0 -0 -0 -0 -0 -0 0 0 0
0 0 0 0 0 0 0 0 0 0 0 -0 0 0 0 0 0 0 0 0 0 0 0 0 -0 -0 -0 -0 -0 0 -0 -0 0 -0 0 0 0 0 -0 -0 -0 -0 0 0
Wind_Speed_500mb
61 67 67 69 67 70 48 15 6 3 5 13 11 12 16 16 16 18 20 15 24 19 28 31 31 33 27 33 30 31 23 13 30 41 47 35 18 30 11 16 20 22 26 38
63 67 68 65 63 59 52 21 20 5 2 6 14 22 24 27 12 18 26 22 20 24 27 27 16 30 38 29 32 12 11 10 24 27 28 17 16 41 35 28 17 26 25 22
64 67 67 62 58 40 28 16 8 3 12 6 13 21 26 24 16 23 13 15 22 23 26 27 26 39 36 23 22 36 18 24 29 28 37 20 21 42 42 34 24 35 27 31
64 63 62 57 52 27 22 13 11 12 12 24 28 25 24 28 19 22 20 19 24 21 26 32 36 30 39 34 34 21 5 16 30 38 43 43 45 47 50 43 44 39 36 34
58 57 53 48 45 25 14 18 16 22 39 27 26 22 22 24 23 22 28 30 31 29 26 30 48 43 35 30 28 15 10 15 28 43 41 43 48 45 48 50 44 46 43 34
55 50 46 40 34 28 13 17 13 13 24 20 21 16 21 25 30 16 26 30 32 37 36 54 60 61 60 47 36 24 11 12 19 41 37 31 29 19 36 40 38 20 24 25
54 48 42 36 27 16 10 16 16 10 12 20 21 36 29 25 26 32 40 39 36 52 44 59 60 63 61 49 25 23 12 5 5 17 23 21 16 22 34 38 38 35 29 31
51 47 43 36 28 20 12 15 13 9 14 33 34 34 38 46 35 32 36 40 26 31 45 24 23 25 5 13 20 21 18 2 7 8 11 27 25 17 21 31 47 36 30 28
48 44 42 38 31 25 16 13 22 20 12 8 41 41 36 16 22 27 25 37 32 33 17 17 16 11 12 9 4 19 20 13 6 9 9 7 11 19 25 28 31 29 31 30
48 45 41 39 34 29 22 21 18 25 25 46 27 31 34 42 25 15 38 27 24 15 7 6 9 11 17 9 8 8 9 7 14 19 10 9 5 3 4 5 15 49 48 47
49 47 42 38 35 30 25 24 18 29 42 67 66 50 45 31 24 10 27 23 12 17 7 6 8 8 10 15 20 23 6 6 6 4 9 8 19 11 5 13 51 57 51 47
50 48 44 39 32 27 27 31 18 28 42 56 71 69 67 66 59 49 16 16 16 10 6 7 10 14 9 22 11 23 9 8 7 10 8 25 35 25 35 41 46 42 51 51
50 49 46 37 28 26 30 33 32 26 47 64 40 44 28 28 40 37 29 17 16 14 12 3 4 10 15 11 16 29 21 36 12 8 10 10 34 39 35 42 44 50 53 66
48 47 46 40 35 36 36 36 32 30 22 17 15 24 35 23 23 37 44 38 19 26 19 8 6 7 17 13 24 29 31 24 17 23 15 26 7 26 41 50 43 53 65 60
46 45 46 41 41 45 45 43 38 30 27 12 37 67 15 14 37 50 38 37 37 37 9 8 6 10 14 14 12 20 6 13 8 5 14 3 21 40 45 45 45 54 62 46
45 44 45 43 45 41 20 13 1 22 35 11 9 29 41 21 22 27 48 48 43 31 8 7 12 28 11 6 8 30 34 21 18 7 16 19 42 45 40 47 50 53 40 34
44 44 46 47 39 31 17 6 7 7 15 8 13 13 6 15 24 24 24 30 20 21 8 11 16 41 21 7 19 47 36 26 20 22 25 43 38 41 53 42 47 40 29 21
44 43 43 38 19 15 21 19 34 28 11 11 7 11 20 18 21 11 19 16 16 16 11 10 11 23 13 9 32 25 23 24 26 26 30 35 41 41 34 35 44 40 30 34
42 35 28 17 7 7 7 13 18 22 21 8 8 8 14 3 12 9 15 19 9 13 8 9 12 8 10 19 35 20 28 29 22 28 27 39 40 40 28 35 45 41 36 35
30 23 9 9 3 6 15 9 6 12 13 12 11 35 26 39 39 8 5 15 7 7 14 14 10 12 20 21 19 14 21 25 24 28 31 35 44 37 31 32 37 39 32 30
22 13 9 15 21 14 13 9 14 13 8 14 16 27 19 26 17 14 11 6 6 7 7 8 7 0 2 18 14 13 18 23 22 20 24 26 33 34 21 30 36 40 39 37
23 22 26 15 7 9 7 7 8 11 5 5 15 6 5 7 7 8 9 6 6 7 9 5 4 5 29 19 16 13 18 21 21 23 25 31 32 31 25 30 40 42 43 40
2 4 6 6 7 4 9 9 6 7 17 25 31 20 8 8 9 11 7 5 9 21 6 2 9 11 19 20 12 11 15 21 21 27 28 32 31 29 33 31 36 44 40 38
7 6 6 7 3 7 6 14 15 16 23 26 28 23 5 6 4 6 8 9 7 5 5 7 16 4 11 19 19 9 15 19 23 26 27 32 33 32 32 39 37 38 40 26
7 9 5 5 17 32 38 38 37 38 38 33 24 27 23 5 5 4 7 8 7 1 4 7 39 15 8 22 20 7 15 17 24 23 24 29 31 32 34 33 35 32 31 32
5 7 13 22 26 29 34 35 29 31 43 40 21 12 7 7 2 5 7 6 8 11 13 38 36 24 7 16 13 11 8 14 19 22 22 24 27 30 30 32 37 35 33 33
6 12 17 19 27 30 30 32 28 28 23 9 8 12 9 11 4 6 10 7 8 34 46 54 45 44 39 5 14 10 19 18 13 16 19 19 22 22 23 30 33 43 49 44
Wind_Direction_500mb
351 351 352 354 353 347 1 333 305 188 324 260 237 257 349 314 299 314 271 270 309 309 312 311 305 300 311 331 329 315 337 293 288 287 286 310 192 283 256 280 292 288 287 279
349 351 349 352 355 351 350 320 300 204 322 312 335 334 321 309 352 322 320 308 320 330 299 299 300 301 300 333 328 322 351 287 308 297 281 41 352 311 306 297 284 264 268 294
345 346 347 350 355 356 359 311 322 319 295 269 306 338 314 323 316 288 309 311 290 307 306 307 296 298 305 320 290 298 279 266 259 277 289 286 250 276 276 284 283 283 273 306
341 344 345 349 0 11 21 320 9 16 309 334 321 298 299 302 315 322 303 301 308 299 307 305 295 293 300 307 310 301 264 264 276 279 283 278 274 264 276 243 246 265 286 289
341 345 346 349 3 34 24 354 353 335 296 311 300 288 306 328 322 338 309 303 308 319 295 274 285 302 305 308 304 285 320 275 293 285 281 279 275 274 272 271 271 268 271 278
342 346 348 347 359 26 12 356 346 337 299 290 308 332 329 311 312 308 308 322 310 299 295 290 301 297 289 281 277 293 283 286 290 277 292 290 291 304 307 328 323 349 307 324
343 345 347 345 348 0 353 328 321 313 290 329 321 321 299 290 312 292 291 296 284 283 298 302 295 278 267 253 243 198 213 223 234 286 295 270 309 347 330 318 310 304 331 324
342 343 343 341 338 332 315 304 295 296 281 310 299 343 329 312 306 314 300 291 308 308 301 298 294 299 170 226 227 214 196 180 279 281 287 287 295 358 344 338 314 352 352 332
338 339 339 337 332 327 314 297 283 276 289 268 325 312 311 343 324 319 324 326 317 297 286 287 283 305 308 335 40 166 162 206 203 298 275 281 53 38 359 343 281 23 349 325
336 336 334 332 328 323 313 288 273 282 274 281 292 301 305 300 303 282 294 343 318 300 300 291 278 303 332 335 358 292 258 212 228 260 262 260 139 309 191 231 315 325 324 312
333 333 332 327 325 323 317 290 264 268 274 282 282 278 283 285 267 254 292 320 16 302 279 305 339 323 326 317 313 297 282 271 264 283 276 299 265 25 212 290 296 299 303 298
331 330 328 326 323 323 317 300 302 278 274 270 288 285 276 265 262 265 249 256 317 280 317 344 326 317 299 316 297 317 317 287 261 205 252 319 333 309 295 294 278 291 297 295
326 327 325 322 319 317 302 294 296 295 285 296 282 286 275 250 241 241 217 230 229 241 283 28 279 273 314 302 301 306 301 300 248 273 251 288 323 308 315 307 295 308 301 297
323 323 320 318 313 303 291 289 287 280 296 285 291 305 296 273 240 223 230 239 249 237 305 262 267 264 277 291 293 295 288 309 304 281 304 313 324 320 322 307 314 312 310 304
320 320 317 315 308 305 301 288 273 253 241 293 300 309 314 295 230 227 229 226 239 246 251 211 233 254 280 292 297 273 345 271 326 293 29 341 298 322 322 328 317 315 316 308
318 318 316 312 311 309 319 321 210 226 228 289 298 294 298 262 214 207 217 223 229 233 224 239 243 256 273 267 268 285 317 357 46 36 359 1 328 321 326 317 323 327 317 311
320 319 313 309 306 289 226 273 335 242 224 254 286 271 253 227 204 199 211 218 210 211 203 230 250 265 244 245 268 281 300 80 71 44 10 347 333 323 325 333 339 341 326 318
322 319 310 306 298 296 280 269 255 253 268 253 270 275 272 220 216 215 197 184 189 212 225 232 241 267 210 249 256 286 30 9 54 37 25 347 335 341 341 347 353 355 351 5
330 322 306 294 254 230 269 285 267 255 224 262 249 283 300 283 263 244 195 183 202 210 220 224 228 214 224 238 263 3 31 33 33 30 10 354 353 348 356 358 360 8 7 11
347 344 265 204 95 334 316 297 218 215 220 239 253 255 271 292 305 289 290 180 224 215 218 211 216 248 259 319 282 20 31 58 44 18 1 355 356 354 2 3 3 14 16 26
353 324 301 305 303 301 242 236 203 176 234 220 245 239 259 274 263 300 249 296 224 249 172 218 221 299 335 238 81 67 33 48 51 44 1 18 6 4 22 11 12 30 31 31
313 306 306 316 319 239 285 259 233 203 309 208 308 263 276 277 288 269 267 277 281 283 249 252 309 136 219 240 97 61 43 43 41 37 19 28 25 16 25 33 27 33 39 40
18 329 270 271 268 293 241 302 23 340 354 339 331 315 347 320 239 261 281 268 255 318 284 17 20 314 263 112 106 65 42 43 38 46 33 42 42 35 33 39 32 30 39 53
289 302 272 256 254 11 305 303 328 348 318 319 315 317 312 269 271 335 280 263 281 262 278 67 270 201 92 92 97 71 35 46 41 39 41 44 49 47 42 41 40 36 37 35
290 300 252 275 337 324 329 334 341 345 324 320 308 285 205 198 260 231 281 261 239 255 21 16 322 24 96 87 75 87 39 32 56 46 45 52 51 54 56 47 49 51 52 53
278 263 286 306 333 327 324 326 324 332 336 317 314 271 266 177 237 258 249 259 49 358 7 340 351 15 132 121 115 89 78 59 59 58 54 54 59 61 67 63 55 53 49 56
256 245 277 306 326 332 326 325 312 305 295 2 348 315 360 294 264 341 17 337 292 354 360 343 353 348 333 320 140 124 120 82 65 66 71 69 64 67 63 64 57 55 60 61
Wind_Speed_850mb
61 67 67 69 67 70 48 15 6 3 5 13 11 12 16 16 16 18 20 15 24 19 28 31 31 33 27 33 30 31 23 13 30 41 47 35 18 30 11 16 20 22 26 38
63 67 68 65 63 59 52 21 20 5 2 6 14 22 24 27 12 18 26 22 20 24 27 27 16 30 38 29 32 12 11 10 24 27 28 17 16 41 35 28 17 26 25 22
64 67 67 62 58 40 28 16 8 3 12 6 13 21 26 24 16 23 13 15 22 23 26 27 26 39 36 23 22 36 18 24 29 28 37 20 21 42 42 34 24 35 27 31
64 63 62 57 52 27 22 13 11 12 12 24 28 25 24 28 19 22 20 19 24 21 26 32 36 30 39 34 34 21 5 16 30 38 43 43 45 47 50 43 44 39 36 34
58 57 53 48 45 25 14 18 16 22 39 27 26 22 22 24 23 22 28 30 31 29 26 30 48 43 35 30 28 15 10 15 28 43 41 43 48 45 48 50 44 46 43 34
55 50 46 40 34 28 13 17 13 13 24 20 21 16 21 25 30 16 26 30 32 37 36 54 60 61 60 47 36 24 11 12 19 41 37 31 29 19 36 40 38 20 24 25
54 48 42 36 27 16 10 16 16 10 12 20 21 36 29 25 26 32 40 39 36 52 44 59 60 63 61 49 25 23 12 5 5 17 23 21 16 22 34 38 38 35 29 31
51 47 43 36 28 20 12 15 13 9 14 33 34 34 38 46 35 32 36 40 26 31 45 24 23 25 5 13 20 21 18 2 7 8 11 27 25 17 21 31 47 36 30 28
48 44 42 38 31 25 16 13 22 20 12 8 41 41 36 16 22 27 25 37 32 33 17 17 16 11 12 9 4 19 20 13 6 9 9 7 11 19 25 28 31 29 31 30
48 45 41 39 34 29 22 21 18 25 25 46 27 31 34 42 25 15 38 27 24 15 7 6 9 11 17 9 8 8 9 7 14 19 10 9 5 3 4 5 15 49 48 47
49 47 42 38 35 30 25 24 18 29 42 67 66 50 45 31 24 10 27 23 12 17 7 6 8 8 10 15 20 23 6 6 6 4 9 8 19 11 5 13 51 57 51 47
50 48 44 39 32 27 27 31 18 28 42 56 71 69 67 66 59 49 16 16 16 10 6 7 10 14 9 22 11 23 9 8 7 10 8 25 35 25 35 41 46 42 51 51
50 49 46 37 28 26 30 33 32 26 47 64 40 44 28 28 40 37 29 17 16 14 12 3 4 10 15 11 16 29 21 36 12 8 10 10 34 39 35 42 44 50 53 66
48 47 46 40 35 36 36 36 32 30 22 17 15 24 35 23 23 37 44 38 19 26 19 8 6 7 17 13 24 29 31 24 17 23 15 26 7 26 41 50 43 53 65 60
46 45 46 41 41 45 45 43 38 30 27 12 37 67 15 14 37 50 38 37 37 37 9 8 6 10 14 14 12 20 6 13 8 5 14 3 21 40 45 45 45 54 62 46
45 44 45 43 45 41 20 13 1 22 35 11 9 29 41 21 22 27 48 48 43 31 8 7 12 28 11 6 8 30 34 21 18 7 16 19 42 45 40 47 50 53 40 34
44 44 46 47 39 31 17 6 7 7 15 8 13 13 6 15 24 24 24 30 20 21 8 11 16 41 21 7 19 47 36 26 20 22 25 43 38 41 53 42 47 40 29 21
44 43 43 38 19 15 21 19 34 28 11 11 7 11 20 18 21 11 19 16 16 16 11 10 11 23 13 9 32 25 23 24 26 26 30 35 41 41 34 35 44 40 30 34
42 35 28 17 7 7 7 13 18 22 21 8 8 8 14 3 12 9 15 19 9 13 8 9 12 8 10 19 35 20 28 29 22 28 27 39 40 40 28 35 45 41 36 35
30 23 9 9 3 6 15 9 6 12 13 12 11 35 26 39 39 8 5 15 7 7 14 14 10 12 20 21 19 14 21 25 24 28 31 35 44 37 31 32 37 39 32 30
22 13 9 15 21 14 13 9 14 13 8 14 16 27 19 26 17 14 11 6 6 7 7 8 7 0 2 18 14 13 18 23 22 20 24 26 33 34 21 30 36 40 39 37
23 22 26 15 7 9 7 7 8 11 5 5 15 6 5 7 7 8 9 6 6 7 9 5 4 5 29 19 16 13 18 21 21 23 25 31 32 31 25 30 40 42 43 40
2 4 6 6 7 4 9 9 6 7 17 25 31 20 8 8 9 11 7 5 9 21 6 2 9 11 19 20 12 11 15 21 21 27 28 32 31 29 33 31 36 44 40 38
7 6 6 7 3 7 6 14 15 16 23 26 28 23 5 6 4 6 8 9 7 5 5 7 16 4 11 19 19 9 15 19 23 26 27 32 33 32 32 39 37 38 40 26
7 9 5 5 17 32 38 38 37 38 38 33 24 27 23 5 5 4 7 8 7 1 4 7 39 15 8 22 20 7 15 17 24 23 24 29 31 32 34 33 35 32 31 32
5 7 13 22 26 29 34 35 29 31 43 40 21 12 7 7 2 5 7 6 8 11 13 38 36 24 7 16 13 11 8 14 19 22 22 24 27 30 30 32 37 35 33 33
6 12 17 19 27 30 30 32 28 28 23 9 8 12 9 11 4 6 10 7 8 34 46 54 45 44 39 5 14 10 19 18 13 16 19 19 22 22 23 30 33 43 49 44
Wind_Direction_850mb
351 351 352 354 353 347 1 333 305 188 324 260 237 257 349 314 299 314 271 270 309 309 312 311 305 300 311 331 329 315 337 293 288 287 286 310 192 283 256 280 292 288 287 279
349 351 349 352 355 351 350 320 300 204 322 312 335 334 321 309 352 322 320 308 320 330 299 299 300 301 300 333 328 322 351 287 308 297 281 41 352 311 306 297 284 264 268 294
345 346 347 350 355 356 359 311 322 319 295 269 306 338 314 323 316 288 309 311 290 307 306 307 296 298 305 320 290 298 279 266 259 277 289 286 250 276 276 284 283 283 273 306
341 344 345 349 0 11 21 320 9 16 309 334 321 298 299 302 315 322 303 301 308 299 307 305 295 293 300 307 310 301 264 264 276 279 283 278 274 264 276 243 246 265 286 289
341 345 346 349 3 34 24 354 353 335 296 311 300 288 306 328 322 338 309 303 308 319 295 274 285 302 305 308 304 285 320 275 293 285 281 279 275 274 272 271 271 268 271 278
342 346 348 347 359 26 12 356 346 337 299 290 308 332 329 311 312 308 308 322 310 299 295 290 301 297 289 281 277 293 283 286 290 277 292 290 291 304 307 328 323 349 307 324
343 345 347 345 348 0 353 328 321 313 290 329 321 321 299 290 312 292 291 296 284 283 298 302 295 278 267 253 243 198 213 223 234 286 295 270 309 347 330 318 310 304 331 324
342 343 343 341 338 332 315 304 295 296 281 310 299 343 329 312 306 314 300 291 308 308 301 298 294 299 170 226 227 214 196 180 279 281 287 287 295 358 344 338 314 352 352 332
338 339 339 337 332 327 314 297 283 276 289 268 325 312 311 343 324 319 324 326 317 297 286 287 283 305 308 335 40 166 162 206 203 298 275 281 53 38 359 343 281 23 349 325
336 336 334 332 328 323 313 288 273 282 274 281 292 301 305 300 303 282 294 343 318 300 300 291 278 303 332 335 358 292 258 212 228 260 262 260 139 309 191 231 315 325 324 312
333 333 332 327 325 323 317 290 264 268 274 282 282 278 283 285 267 254 292 320 16 302 279 305 339 323 326 317 313 297 282 271 264 283 276 299 265 25 212 290 296 299 303 298
331 330 328 326 323 323 317 300 302 278 274 270 288 285 276 265 262 265 249 256 317 280 317 344 326 317 299 316 297 317 317 287 261 205 252 319 333 309 295 294 278 291 297 295
326 327 325 322 319 317 302 294 296 295 285 296 282 286 275 250 241 241 217 230 229 241 283 28 279 273 314 302 301 306 301 300 248 273 251 288 323 308 315 307 295 308 301 297
323 323 320 318 313 303 291 289 287 280 296 285 291 305 296 273 240 223 230 239 249 237 305 262 267 264 277 291 293 295 288 309 304 281 304 313 324 320 322 307 314 312 310 304
320 320 317 315 308 305 301 288 273 253 241 293 300 309 314 295 230 227 229 226 239 246 251 211 233 254 280 292 297 273 345 271 326 293 29 341 298 322 322 328 317 315 316 308
318 318 316 312 311 309 319 321 210 226 228 289 298 294 298 262 214 207 217 223 229 233 224 239 243 256 273 267 268 285 317 357 46 36 359 1 328 321 326 317 323 327 317 311
320 319 313 309 306 289 226 273 335 242 224 254 286 271 253 227 204 199 211 218 210 211 203 230 250 265 244 245 268 281 300 80 71 44 10 347 333 323 325 333 339 341 326 318
322 319 310 306 298 296 280 269 255 253 268 253 270 275 272 220 216 215 197 184 189 212 225 232 241 267 210 249 256 286 30 9 54 37 25 347 335 341 341 347 353 355 351 5
330 322 306 294 254 230 269 285 267 255 224 262 249 283 300 283 263 244 195 183 202 210 220 224 228 214 224 238 263 3 31 33 33 30 10 354 353 348 356 358 360 8 7 11
347 344 265 204 95 334 316 297 218 215 220 239 253 255 271 292 305 289 290 180 224 215 218 211 216 248 259 319 282 20 31 58 44 18 1 355 356 354 2 3 3 14 16 26
353 324 301 305 303 301 242 236 203 176 234 220 245 239 259 274 263 300 249 296 224 249 172 218 221 299 335 238 81 67 33 48 51 44 1 18 6 4 22 11 12 30 31 31
313 306 306 316 319 239 285 259 233 203 309 208 308 263 276 277 288 269 267 277 281 283 249 252 309 136 219 240 97 61 43 43 41 37 19 28 25 16 25 33 27 33 39 40
18 329 270 271 268 293 241 302 23 340 354 339 331 315 347 320 239 261 281 268 255 318 284 17 20 314 263 112 106 65 42 43 38 46 33 42 42 35 33 39 32 30 39 53
289 302 272 256 254 11 305 303 328 348 318 319 315 317 312 269 271 335 280 263 281 262 278 67 270 201 92 92 97 71 35 46 41 39 41 44 49 47 42 41 40 36 37 35
290 300 252 275 337 324 329 334 341 345 324 320 308 285 205 198 260 231 281 261 239 255 21 16 322 24 96 87 75 87 39 32 56 46 45 52 51 54 56 47 49 51 52 53
278 263 286 306 333 327 324 326 324 332 336 317 314 271 266 177 237 258 249 259 49 358 7 340 351 15 132 121 115 89 78 59 59 58 54 54 59 61 67 63 55 53 49 56
256 245 277 306 326 332 326 325 312 305 295 2 348 315 360 294 264 341 17 337 292 354 360 343 353 348 333 320 140 124 120 82 65 66 71 69 64 67 63 64 57 55 60 61